Weather History for YMML - December, 2013

Change the Weather History Date:

Saturday, December 28, 2013

  Actual Average Record
Temperature  
Mean Temperature 74 °F -  
Max Temperature 98 °F 77 °F 98 °F (2013)
Min Temperature 51 °F 55 °F 42 °F (2010)
Cooling Degree Days 10    
Growing Degree Days 24 (Base 50)    
Moisture  
Dew Point 47 °F    
Average Humidity 50    
Maximum Humidity 100    
Minimum Humidity 5    
Precipitation  
Precipitation 0.00 in 0.06 in - ()
Sea Level Pressure  
Sea Level Pressure 29.69 in    
Wind  
Wind Speed 13 mph ()    
Max Wind Speed 33 mph    
Max Gust Speed 45 mph    
Visibility 6.4 miles    
Events      
Averages and records for this station are not official NWS values.
T = Trace of Precipitation, MM = Missing Value Source: Averaged Metar Reports

Daily Weather History Graph

Daily Weather History Graph

Search for Another Location

Airport or City:

Trip Planner

Search our weather history database for the weather conditions in past years. The results will help you decide how hot, cold, wet, or windy it might be!

Date:

Astronomy

Dec. 28, 2013 Rise Set
Actual Time 5:59 AM AEDT 8:44 PM AEDT
Civil Twilight 5:28 AM AEDT 9:15 PM AEDT
Nautical Twilight 4:49 AM AEDT 9:54 PM AEDT
Astronomical Twilight 4:05 AM AEDT 10:38 PM AEDT
Moon 2:12 AM AEDT 4:02 PM AEDT
Length of Visible Light 15h 47m
Length of Day
14h 45m
Waning Crescent, 25% of the Moon is Illuminated
Dec 28
Waning Crescent
Jan 1
New
Jan 8
First Quarter
Jan 16
Full
Jan 24
Last Quarter

Hourly Weather History & Observations

Time (AEDT) Temp. Dew Point Humidity Pressure Visibility Wind Dir Wind Speed Gust Speed Precip Events Conditions
12:00 AM 56 °F 54 °F 91% 29.86 in 9 mi SW 4.6 mph - -   Haze
12:00 AM 57.2 °F 53.6 °F 88% 29.86 in 6.2 mi SW 4.6 mph - N/A   Partly Cloudy
12:30 AM 57.2 °F 53.6 °F 88% 29.83 in 6.2 mi WSW 3.5 mph - N/A   Partly Cloudy
1:00 AM 55 °F 53 °F 91% 29.83 in - Calm Calm - -  
1:00 AM 55.4 °F 53.6 °F 94% 29.83 in 6.2 mi Calm Calm - N/A   Partly Cloudy
1:30 AM 53.6 °F 53.6 °F 100% 29.83 in 6.2 mi NW 6.9 mph - N/A   Mostly Cloudy
2:00 AM 56 °F 54 °F 90% 29.82 in - WNW 6.9 mph - -  
2:00 AM 55.4 °F 53.6 °F 94% 29.83 in 6.2 mi WNW 6.9 mph - N/A   Mostly Cloudy
2:30 AM 53.6 °F 51.8 °F 94% 29.80 in 6.2 mi North 6.9 mph - N/A   Mostly Cloudy
3:00 AM 54 °F 52 °F 92% 29.78 in 9 mi North 6.9 mph - -   Haze
3:00 AM 53.6 °F 51.8 °F 94% 29.77 in 6.2 mi North 6.9 mph - N/A   Scattered Clouds
3:30 AM 51.8 °F 50.0 °F 94% 29.74 in 6.2 mi North 8.1 mph - N/A   Partly Cloudy
4:00 AM 53 °F 51 °F 90% 29.74 in - North 5.8 mph - -  
4:00 AM 53.6 °F 51.8 °F 94% 29.74 in 6.2 mi North 5.8 mph - N/A   Scattered Clouds
4:13 AM 53.6 °F 51.8 °F 94% 29.74 in 6.2 mi North 5.8 mph - N/A   Mostly Cloudy
4:30 AM 53.6 °F 51.8 °F 94% 29.74 in 6.2 mi NNE 5.8 mph - N/A   Mostly Cloudy
5:00 AM 56 °F 54 °F 92% 29.73 in - NNE 6.9 mph - -  
5:00 AM 57.2 °F 53.6 °F 88% 29.74 in 6.2 mi NNE 6.9 mph - N/A   Overcast
5:30 AM 55.4 °F 55.4 °F 100% 29.71 in 4.3 mi NNE 9.2 mph - N/A   Overcast
6:00 AM 56 °F 54 °F 93% 29.71 in 4 mi North 10.4 mph - -   Mist
6:00 AM 55.4 °F 55.4 °F 100% 29.71 in 3.7 mi North 10.4 mph - N/A   Overcast
6:30 AM 55.4 °F 53.6 °F 94% 29.71 in 5.0 mi NNE 10.4 mph - N/A   Mostly Cloudy
7:00 AM 57 °F 54 °F 88% 29.70 in - NNE 9.2 mph - -  
7:00 AM 57.2 °F 53.6 °F 88% 29.71 in 6.2 mi NNE 9.2 mph - N/A   Scattered Clouds
7:30 AM 59.0 °F 53.6 °F 82% 29.68 in 6.2 mi NE 6.9 mph - N/A   Partly Cloudy
8:00 AM 69 °F 51 °F 42% 29.68 in - North 9.2 mph - -  
8:00 AM 69.8 °F 51.8 °F 53% 29.68 in 6.2 mi North 9.2 mph - N/A   Partly Cloudy
8:23 AM 71.6 °F 48.2 °F 43% 29.65 in - North 21.9 mph - N/A   Clear
8:30 AM 73.4 °F 48.2 °F 41% 29.65 in - North 23.0 mph - N/A   Clear
9:00 AM 76 °F 50 °F 29% 29.68 in 25 mi North 28.8 mph - -   Partly Cloudy
9:00 AM 75.2 °F 50.0 °F 41% 29.68 in - North 28.8 mph - N/A   Clear
9:30 AM 78.8 °F 50.0 °F 36% 29.65 in - North 26.5 mph - N/A   Clear
10:00 AM 80 °F 49 °F 23% 29.65 in - North 29.9 mph - -  
10:00 AM 80.6 °F 48.2 °F 32% 29.65 in - North 29.9 mph - N/A   Clear
10:30 AM 80.6 °F 48.2 °F 32% 29.65 in - North 24.2 mph - N/A   Clear
11:00 AM 84 °F 46 °F 17% 29.65 in - North 23.0 mph - -  
11:00 AM 84.2 °F 46.4 °F 27% 29.65 in - North 23.0 mph - N/A   Clear
11:30 AM 87.8 °F 41.0 °F 19% 29.62 in - North 25.3 mph - N/A   Clear
11:50 AM 87.8 °F 39.2 °F 18% 29.62 in - North 29.9 mph - N/A   Clear
12:00 PM 89 °F 38 °F 9% 29.62 in 22 mi North 26.5 mph - -   Partly Cloudy
12:00 PM 87.8 °F 37.4 °F 17% 29.62 in - North 26.5 mph 38.0 mph N/A   Clear
12:30 PM 89.6 °F 35.6 °F 15% 29.59 in - North 25.3 mph - N/A   Clear
12:44 PM 91.4 °F 35.6 °F 14% 29.59 in - North 27.6 mph 39.1 mph N/A   Clear
1:00 PM 92 °F 35 °F 7% 29.59 in - North 27.6 mph - -  
1:00 PM 93.2 °F 35.6 °F 13% 29.59 in - North 27.6 mph - N/A   Clear
1:06 PM 91.4 °F 35.6 °F 14% 29.59 in - North 25.3 mph 36.8 mph N/A   Clear
1:33 PM 91.4 °F 32.0 °F 12% 29.56 in - North 23.0 mph 34.5 mph N/A   Clear
2:00 PM 91 °F 33 °F 6% 29.55 in - North 26.5 mph - -  
2:00 PM 91.4 °F 33.8 °F 13% 29.53 in - North 26.5 mph - N/A   Clear
2:30 PM 93.2 °F 33.8 °F 12% 29.53 in - North 28.8 mph 41.4 mph N/A   Clear
3:00 PM 93 °F 35 °F 6% 29.52 in 25 mi North 24.2 mph - -   Partly Cloudy
3:00 PM 93.2 °F 33.8 °F 12% 29.50 in - North 24.2 mph - N/A   Clear
3:02 PM 95.0 °F 35.6 °F 12% 29.50 in - North 23.0 mph 34.5 mph N/A   Clear
3:23 PM 95.0 °F 32.0 °F 11% 29.53 in - NW 19.6 mph - N/A   Clear
3:30 PM 95.0 °F 32.0 °F 11% 29.53 in - NW 20.7 mph - N/A   Clear
3:50 PM 96.8 °F 33.8 °F 11% 29.50 in - NNW 19.6 mph 31.1 mph N/A   Clear
4:00 PM 98 °F 35 °F 5% 29.52 in - WNW 17.3 mph - -  
4:00 PM 98.6 °F 35.6 °F 11% 29.50 in - WNW 17.3 mph - N/A   Clear
4:05 PM 98.6 °F 33.8 °F 10% 29.50 in - NNW 19.6 mph 44.9 mph N/A   Clear
4:21 PM 96.8 °F 30.2 °F 10% 29.53 in - WNW 23.0 mph - N/A   Clear
4:28 PM 80.6 °F 51.8 °F 37% 29.56 in - South 33.4 mph - N/A   Clear
4:29 PM 78.8 °F 51.8 °F 39% 29.56 in - South 32.2 mph 43.7 mph N/A   Clear
4:30 PM 78.8 °F 53.6 °F 42% 29.56 in - South 32.2 mph 43.7 mph N/A   Clear
5:00 PM 78 °F 54 °F 33% 29.63 in - South 20.7 mph - -  
5:00 PM 77.0 °F 53.6 °F 44% 29.62 in - South 20.7 mph - N/A   Clear
5:30 PM 75.2 °F 53.6 °F 47% 29.65 in - South 21.9 mph - N/A   Clear
6:00 PM 72 °F 50 °F 35% 29.68 in 12 mi South 24.2 mph - -   Haze
6:00 PM 71.6 °F 50.0 °F 46% 29.68 in - South 24.2 mph - N/A   Clear
6:30 PM 71.6 °F 51.8 °F 50% 29.71 in - South 19.6 mph - N/A   Clear
7:00 PM 68 °F 51 °F 45% 29.75 in - South 20.7 mph - -  
7:00 PM 68.0 °F 51.8 °F 56% 29.74 in 6.2 mi South 20.7 mph - N/A   Partly Cloudy
7:30 PM 66.2 °F 51.8 °F 60% 29.77 in 6.2 mi SSE 25.3 mph - N/A   Partly Cloudy
8:00 PM 64 °F 52 °F 56% 29.81 in - South 21.9 mph - -  
8:00 PM 64.4 °F 51.8 °F 64% 29.80 in 6.2 mi South 21.9 mph - N/A   Scattered Clouds
8:30 PM 62.6 °F 48.2 °F 59% 29.83 in 6.2 mi South 21.9 mph - N/A   Scattered Clouds
9:00 PM 61 °F 49 °F 54% 29.86 in 9 mi South 19.6 mph - -   Haze
9:00 PM 60.8 °F 48.2 °F 63% 29.86 in 6.2 mi South 19.6 mph - N/A   Partly Cloudy
9:30 PM 60.8 °F 48.2 °F 63% 29.86 in 6.2 mi South 16.1 mph - N/A   Partly Cloudy
10:00 PM 59 °F 47 °F 54% 29.89 in - South 19.6 mph - -  
10:00 PM 59.0 °F 46.4 °F 63% 29.89 in 6.2 mi South 19.6 mph - N/A   Partly Cloudy
10:30 PM 59.0 °F 44.6 °F 59% 29.89 in 6.2 mi South 20.7 mph - N/A   Mostly Cloudy
11:00 PM 59 °F 46 °F 51% 29.91 in - South 18.4 mph - -  
11:00 PM 59.0 °F 46.4 °F 63% 29.92 in 6.2 mi South 18.4 mph - N/A   Mostly Cloudy
11:30 PM 57.2 °F 44.6 °F 63% 29.92 in 6.2 mi South 17.3 mph - N/A   Partly Cloudy